TimeEDT,TemperatureF,Dew PointF,Humidity,Sea Level PressureIn,VisibilityMPH,Wind Direction,Wind SpeedMPH,Gust SpeedMPH,PrecipitationIn,Events,Conditions,WindDirDegrees,DateUTC
12:51 AM,62.1,57.0,84,29.95,10.0,Calm,Calm,-,N/A,,Clear,0,2012-10-06 04:51:00
1:51 AM,63.0,55.9,78,29.94,10.0,SW,4.6,-,N/A,,Clear,230,2012-10-06 05:51:00
2:51 AM,62.6,57.2,82,29.92,10.0,SW,3.5,-,N/A,,Clear,230,2012-10-06 06:51:00
3:51 AM,63.0,57.9,84,29.91,10.0,SW,8.1,-,N/A,,Clear,220,2012-10-06 07:51:00
4:51 AM,63.0,59.0,87,29.89,10.0,SSW,8.1,-,N/A,,Clear,210,2012-10-06 08:51:00
5:51 AM,62.1,59.0,90,29.89,8.0,SSW,4.6,-,N/A,,Clear,210,2012-10-06 09:51:00
6:51 AM,63.0,60.1,90,29.88,8.0,SSW,6.9,-,N/A,,Clear,200,2012-10-06 10:51:00
7:51 AM,64.4,60.8,88,29.87,7.0,SSW,5.8,-,N/A,,Clear,200,2012-10-06 11:51:00
8:51 AM,66.9,62.1,84,29.87,10.0,SSW,9.2,-,N/A,,Clear,200,2012-10-06 12:51:00
9:51 AM,71.1,62.1,73,29.85,10.0,SW,9.2,-,N/A,,Clear,220,2012-10-06 13:51:00
10:51 AM,73.0,62.1,68,29.85,10.0,SW,11.5,18.4,N/A,,Mostly Cloudy,230,2012-10-06 14:51:00
11:51 AM,77.0,62.1,60,29.84,10.0,WSW,11.5,19.6,N/A,,Mostly Cloudy,250,2012-10-06 15:51:00
12:51 PM,75.0,60.1,60,29.83,10.0,WSW,11.5,-,N/A,,Overcast,250,2012-10-06 16:51:00
1:51 PM,75.9,61.0,60,29.82,10.0,West,10.4,-,N/A,,Overcast,280,2012-10-06 17:51:00
2:51 PM,73.0,59.0,61,29.85,10.0,WNW,11.5,21.9,N/A,,Overcast,300,2012-10-06 18:51:00
3:51 PM,69.8,57.2,64,29.86,10.0,NW,18.4,24.2,N/A,,Mostly Cloudy,320,2012-10-06 19:51:00
4:51 PM,69.1,52.0,54,29.89,10.0,NW,17.3,-,N/A,,Clear,320,2012-10-06 20:51:00
5:51 PM,64.4,48.2,56,29.91,10.0,NW,16.1,23.0,N/A,,Clear,320,2012-10-06 21:51:00
6:51 PM,60.8,46.4,59,29.95,10.0,NNW,11.5,21.9,N/A,,Clear,330,2012-10-06 22:51:00
7:51 PM,55.9,46.0,69,29.98,10.0,WNW,6.9,-,N/A,,Clear,300,2012-10-06 23:51:00
8:51 PM,55.0,43.0,64,30.01,10.0,NW,5.8,-,N/A,,Clear,310,2012-10-07 00:51:00
9:51 PM,55.0,43.0,64,30.03,10.0,WNW,3.5,-,N/A,,Clear,290,2012-10-07 01:51:00
10:51 PM,52.0,42.1,69,30.04,10.0,WNW,8.1,-,N/A,,Clear,300,2012-10-07 02:51:00
11:51 PM,50.0,43.0,77,30.04,10.0,WNW,4.6,-,N/A,,Clear,290,2012-10-07 03:51:00